Temp
80 92 91 87 72 72 65 67 76 72 73 76 79 77 75 73 68 60 79 83 84 81 78 80 75 76 76 75 75 75 76 77 77 77 77 77 77 77 76 76 75 76 76 76 75 74 74 73 73
90 90 88 83 68 63 67 72 69 75 76 78 76 76 75 68 72 69 75 83 84 81 82 81 73 75 75 75 75 76 76 76 77 77 77 77 77 76 76 76 75 75 75 76 75 74 73 73 72
83 89 81 75 69 63 65 72 75 74 76 76 74 78 76 69 71 74 82 81 80 81 82 78 73 75 75 75 75 75 76 76 77 77 77 76 76 76 75 75 75 75 75 76 75 74 73 72 72
85 86 83 69 65 70 71 74 77 73 74 77 78 71 75 78 72 75 83 81 81 79 81 73 73 74 75 75 75 75 76 76 76 76 76 76 75 75 74 75 74 74 74 75 74 73 72 72 71
85 82 69 66 67 70 75 76 78 73 76 76 76 71 69 74 76 79 82 82 79 77 79 78 72 73 74 75 75 75 75 75 76 75 75 75 74 74 74 74 74 73 74 74 73 72 71 71 70
78 79 65 63 68 71 75 76 77 76 76 75 74 73 69 73 75 77 81 81 79 75 77 78 69 71 72 73 73 74 74 74 74 74 74 74 74 73 73 73 73 73 73 72 72 71 71 70 70
72 71 64 68 68 68 73 77 75 75 75 74 79 72 70 68 74 78 80 80 79 77 75 77 78 73 68 70 70 71 72 72 73 73 72 71 72 72 72 72 72 72 72 71 71 70 70 69 69
77 75 65 68 67 67 74 75 77 76 73 78 79 71 68 69 72 77 78 76 76 79 76 77 77 79 78 76 66 67 68 68 68 69 68 67 68 68 69 68 70 71 71 70 69 69 68 68 67
79 68 64 65 67 70 74 72 75 77 73 75 75 76 77 73 73 73 71 71 70 74 79 77 76 79 79 77 70 66 65 66 65 66 65 66 76 76 73 65 68 69 69 69 68 68 67 67 66
71 66 66 73 73 71 72 73 75 72 73 72 71 74 76 69 69 68 69 68 69 69 75 75 75 78 80 79 75 76 73 76 76 76 76 78 77 75 72 65 64 65 66 67 67 67 67 66 77
71 65 73 71 73 74 71 71 76 73 72 77 74 72 71 66 68 72 73 72 72 73 71 73 77 78 79 78 78 77 77 76 76 76 76 76 75 74 75 73 72 72 64 75 72 73 75 74 75
61 73 74 72 70 71 71 72 71 73 77 77 82 79 70 64 66 73 74 75 74 72 70 72 74 77 79 79 78 78 76 76 75 76 76 75 75 74 75 75 74 74 75 74 74 74 73 74 75
63 71 71 71 70 71 71 70 70 73 79 78 80 75 68 65 67 74 77 77 77 72 70 70 73 76 78 77 78 77 77 76 76 75 75 76 75 74 75 74 75 75 75 75 74 74 74 74 74
70 70 69 69 69 69 69 70 69 76 81 76 76 74 70 68 67 74 75 75 75 75 72 70 70 74 78 77 76 76 77 77 76 76 75 75 76 75 75 74 74 75 75 75 75 74 73 74 74
66 61 63 65 68 69 69 65 66 77 75 75 74 76 73 69 71 75 76 75 76 75 76 70 70 69 77 77 76 77 76 76 75 76 76 75 75 75 75 75 74 75 75 73 73 74 74 74 75
60 62 54 64 65 67 67 57 72 78 74 73 76 76 73 72 73 76 76 78 77 76 75 75 72 70 75 76 76 77 77 75 75 76 75 75 75 75 74 73 73 75 74 74 73 73 71 69 69
55 52 54 59 68 66 63 60 71 73 73 73 76 76 74 73 74 75 76 78 78 78 77 76 74 73 74 75 76 76 76 76 76 76 76 75 74 74 73 74 72 73 72 72 70 66 66 67 71
44 49 54 57 63 62 61 60 70 70 70 71 76 77 75 73 73 73 75 77 79 79 78 77 76 75 74 75 75 75 75 75 77 76 75 76 75 72 71 70 69 68 68 65 64 63 65 67 70
57 51 55 61 65 59 60 61 66 72 71 69 72 75 75 74 77 75 74 77 77 78 77 77 75 75 74 72 71 71 71 73 74 75 75 74 73 71 69 68 68 66 67 66 65 65 65 69 69
55 54 54 60 60 58 61 61 66 69 71 72 72 72 74 75 75 76 75 75 75 76 76 76 76 76 75 75 73 73 73 73 73 72 72 72 70 70 69 67 68 68 65 65 64 62 63 65 67
52 52 55 54 57 59 57 55 60 67 70 72 73 74 75 74 75 75 74 74 75 74 75 76 76 76 76 76 74 73 73 72 70 70 70 70 72 71 69 68 68 67 66 66 65 62 62 63 62
45 53 54 52 50 46 58 45 60 67 68 68 70 71 73 74 74 76 74 72 72 73 76 76 76 76 76 76 74 70 69 66 70 71 71 71 72 71 69 68 67 66 66 63 61 61 63 63 61
48 56 52 49 46 45 51 46 55 63 62 67 71 71 72 75 74 73 74 72 73 73 73 75 75 75 75 75 74 72 69 71 73 73 72 70 69 68 64 64 63 62 60 59 58 58 62 63 61
54 46 45 45 43 35 48 48 51 58 63 67 71 74 74 75 75 75 75 74 72 72 72 73 72 73 75 74 74 72 70 70 71 70 68 65 64 61 60 59 59 58 58 56 58 60 60 58 57
48 47 34 32 32 34 49 45 52 62 67 69 69 73 76 76 75 75 73 72 71 70 71 70 71 71 74 74 71 72 72 72 71 69 67 65 62 59 58 57 56 55 56 56 57 56 55 54 53
43 44 37 32 34 42 43 41 52 65 67 65 71 72 73 74 76 75 74 72 71 70 70 70 69 70 71 72 72 72 72 72 71 70 68 67 64 62 60 56 54 54 56 55 56 53 51 50 49
42 37 50 40 33 37 47 52 61 63 65 67 68 69 70 71 72 73 73 73 71 70 68 68 68 69 71 72 72 71 72 72 70 68 69 68 65 59 56 53 52 54 54 54 53 49 47 47 47
50 52 39 40 32 32 45 49 52 57 63 68 67 68 70 72 70 69 69 69 70 70 69 68 69 68 68 70 71 70 70 69 70 67 65 65 60 54 53 51 52 51 52 52 51 48 47 45 44
45 43 48 49 45 37 37 48 63 64 65 65 66 65 67 68 68 68 68 68 67 66 65 66 66 66 66 67 68 67 65 65 65 62 60 60 55 52 50 50 51 50 51 50 48 46 45 44 43
52 47 48 42 35 42 42 44 63 65 65 64 63 64 66 66 66 65 65 64 63 62 62 62 64 63 63 65 65 64 61 56 58 55 53 51 50 50 49 49 48 49 48 47 46 44 44 43 41
MSLP
1014.12 1013.12 1012.84 1012.03 1011.56 1010.64 1010.17 1010.66 1011.01 1011.47 1012.00 1012.96 1012.99 1013.08 1013.39 1014.56 1015.34 1016.89 1017.52 1017.49 1017.68 1018.51 1019.54 1019.89 1020.44 1020.60 1020.65 1020.74 1020.93 1021.14 1021.24 1021.15 1021.20 1021.34 1021.31 1021.36 1021.48 1021.60 1021.72 1021.90 1021.98 1021.92 1022.00 1022.08 1022.20 1022.34 1022.44 1022.41 1022.42
1013.75 1013.14 1012.60 1011.51 1011.09 1010.08 1009.80 1010.83 1011.20 1011.58 1012.73 1013.31 1013.70 1013.83 1013.95 1015.52 1016.80 1017.74 1017.94 1017.78 1018.03 1018.84 1019.26 1019.82 1020.66 1020.91 1020.99 1020.98 1021.18 1021.46 1021.52 1021.54 1021.57 1021.69 1021.75 1021.76 1021.87 1022.03 1022.16 1022.33 1022.43 1022.47 1022.53 1022.55 1022.66 1022.82 1022.87 1022.86 1022.93
1014.28 1013.37 1011.94 1011.17 1010.75 1010.33 1010.27 1011.00 1011.20 1012.44 1013.22 1013.41 1013.80 1014.34 1014.73 1016.17 1017.52 1017.68 1017.66 1018.24 1018.69 1019.02 1019.45 1020.44 1020.86 1021.08 1021.31 1021.40 1021.50 1021.74 1021.84 1021.87 1021.90 1022.05 1022.07 1022.21 1022.49 1022.57 1022.75 1022.86 1022.95 1022.98 1023.02 1022.98 1023.09 1023.26 1023.37 1023.44 1023.48
1013.75 1012.73 1012.24 1011.31 1010.57 1010.92 1011.15 1011.39 1011.77 1012.73 1013.50 1013.82 1013.83 1014.68 1016.09 1017.01 1017.90 1018.17 1017.99 1018.59 1018.92 1019.45 1019.82 1020.94 1021.19 1021.35 1021.49 1021.72 1021.89 1021.95 1022.13 1022.18 1022.21 1022.40 1022.56 1022.77 1022.93 1023.13 1023.30 1023.36 1023.48 1023.57 1023.54 1023.47 1023.56 1023.69 1023.73 1023.83 1023.88
1013.51 1012.32 1011.52 1011.20 1011.02 1011.56 1011.78 1012.06 1012.10 1012.56 1012.91 1013.58 1014.13 1014.85 1016.41 1017.77 1018.25 1018.27 1018.20 1018.56 1019.18 1019.87 1020.33 1021.04 1021.48 1021.62 1021.76 1021.87 1022.11 1022.22 1022.32 1022.50 1022.60 1022.79 1023.06 1023.27 1023.49 1023.64 1023.75 1023.83 1023.94 1023.97 1023.85 1023.88 1023.99 1024.06 1024.10 1024.14 1024.18
1012.79 1012.44 1011.57 1011.02 1011.05 1011.71 1011.98 1012.33 1012.30 1012.49 1013.02 1013.87 1014.18 1015.05 1016.90 1018.14 1018.27 1018.44 1018.45 1018.74 1019.57 1020.33 1020.64 1021.22 1021.71 1021.87 1022.07 1022.29 1022.45 1022.54 1022.72 1022.90 1022.91 1023.16 1023.47 1023.65 1023.85 1024.00 1024.12 1024.24 1024.30 1024.33 1024.28 1024.36 1024.49 1024.54 1024.52 1024.52 1024.55
1012.85 1012.23 1011.66 1011.12 1011.15 1011.70 1011.86 1012.58 1012.51 1012.72 1013.26 1013.67 1014.20 1014.77 1017.09 1018.40 1018.59 1018.54 1018.59 1018.87 1019.74 1020.39 1020.82 1021.25 1021.58 1022.11 1022.31 1022.69 1022.93 1023.10 1023.24 1023.37 1023.46 1023.60 1023.91 1024.06 1024.14 1024.27 1024.44 1024.58 1024.68 1024.71 1024.70 1024.77 1024.92 1024.98 1024.96 1024.92 1024.90
1013.20 1012.14 1011.89 1011.75 1011.45 1011.57 1012.16 1012.76 1013.03 1013.12 1013.55 1014.40 1014.56 1014.79 1016.24 1018.13 1018.85 1018.78 1019.05 1019.60 1020.17 1020.24 1020.69 1021.21 1021.66 1021.91 1022.26 1022.78 1023.41 1023.65 1023.95 1024.10 1024.22 1024.31 1024.44 1024.53 1024.59 1024.68 1024.80 1024.91 1025.01 1025.05 1025.11 1025.22 1025.28 1025.28 1025.23 1025.24 1025.23
1013.62 1012.59 1011.79 1011.94 1011.92 1011.88 1012.70 1012.86 1013.67 1014.06 1014.08 1014.48 1015.04 1015.28 1015.89 1017.92 1018.78 1019.13 1019.63 1020.12 1020.73 1020.53 1020.42 1020.98 1021.58 1021.60 1022.04 1022.60 1023.55 1023.95 1024.30 1024.50 1024.69 1024.79 1024.82 1024.67 1024.40 1024.56 1024.97 1025.34 1025.33 1025.32 1025.36 1025.44 1025.47 1025.46 1025.41 1025.35 1025.26
1013.71 1012.62 1012.18 1012.32 1012.65 1012.68 1013.05 1013.13 1013.42 1013.97 1013.87 1014.44 1015.12 1016.08 1016.77 1018.20 1018.78 1019.27 1019.63 1020.26 1020.52 1020.81 1020.64 1020.97 1021.49 1021.50 1021.90 1022.51 1023.13 1023.54 1024.18 1024.20 1024.23 1024.47 1024.39 1024.33 1024.47 1024.78 1025.13 1025.60 1025.70 1025.71 1025.68 1025.66 1025.65 1025.61 1025.41 1025.23 1024.57
1013.64 1012.61 1012.53 1013.22 1013.63 1013.37 1013.41 1013.56 1013.71 1013.57 1013.17 1013.29 1014.11 1015.66 1017.11 1018.21 1018.59 1018.80 1019.00 1019.59 1020.02 1020.62 1021.31 1021.55 1021.24 1021.51 1021.93 1022.31 1022.63 1023.22 1023.64 1024.06 1024.23 1024.30 1024.37 1024.49 1024.91 1025.05 1024.88 1025.29 1025.36 1025.46 1025.71 1025.17 1025.40 1025.22 1025.01 1025.06 1024.87
1014.08 1013.20 1012.92 1013.61 1014.14 1013.84 1013.62 1013.91 1013.73 1013.61 1013.05 1013.70 1013.45 1014.75 1016.94 1018.13 1018.27 1018.23 1018.46 1018.92 1019.64 1020.36 1021.20 1021.76 1021.60 1021.48 1021.74 1022.20 1022.46 1022.82 1023.28 1023.74 1024.10 1024.36 1024.58 1024.65 1024.61 1024.84 1024.80 1024.78 1025.05 1025.11 1025.05 1025.12 1025.08 1025.06 1025.22 1025.09 1024.99
1014.20 1013.25 1013.76 1014.30 1014.29 1014.06 1014.24 1013.84 1013.71 1013.23 1013.26 1013.87 1014.00 1015.30 1016.69 1017.77 1018.17 1018.14 1018.24 1018.70 1019.30 1020.20 1021.07 1021.66 1021.65 1021.53 1021.68 1022.12 1022.33 1022.77 1023.18 1023.65 1023.84 1024.23 1024.50 1024.43 1024.53 1024.72 1024.80 1024.91 1024.89 1025.00 1025.07 1024.97 1024.96 1024.96 1024.98 1025.00 1024.98
1013.96 1014.05 1014.48 1014.73 1014.39 1014.20 1014.12 1013.77 1013.95 1012.93 1012.91 1013.70 1014.28 1015.06 1016.33 1017.34 1017.84 1017.80 1017.94 1018.37 1019.04 1019.76 1020.80 1021.62 1021.94 1021.59 1021.61 1022.01 1022.37 1022.62 1023.01 1023.34 1023.85 1024.07 1024.36 1024.45 1024.46 1024.65 1024.70 1024.92 1024.97 1025.02 1025.05 1025.12 1025.10 1025.06 1025.04 1024.98 1024.93
1014.97 1014.90 1014.84 1014.53 1014.35 1014.09 1014.43 1013.57 1013.25 1012.91 1013.28 1013.39 1014.06 1014.69 1015.70 1016.85 1017.40 1017.24 1017.66 1018.00 1018.58 1019.42 1020.10 1021.22 1021.94 1022.14 1021.47 1021.78 1022.36 1022.58 1022.73 1023.13 1023.47 1023.76 1024.24 1024.52 1024.58 1024.71 1024.71 1024.77 1024.90 1024.93 1025.16 1025.39 1025.31 1025.14 1024.95 1024.73 1024.59
1015.30 1015.14 1014.44 1014.06 1014.53 1014.39 1014.65 1012.70 1012.42 1012.73 1012.99 1013.03 1013.40 1014.18 1015.24 1016.11 1016.41 1016.91 1017.71 1017.67 1018.12 1018.84 1019.45 1020.33 1021.30 1022.02 1021.54 1021.63 1022.06 1022.30 1022.72 1023.00 1023.16 1023.47 1023.86 1024.13 1024.32 1024.45 1024.60 1024.67 1024.73 1024.87 1025.05 1025.08 1025.05 1025.02 1025.22 1025.08 1024.99
1015.28 1014.39 1014.32 1013.93 1013.95 1014.31 1014.25 1012.71 1012.23 1012.82 1012.82 1012.73 1012.84 1013.40 1014.64 1015.51 1016.06 1016.58 1017.14 1017.28 1017.61 1018.23 1018.81 1019.53 1020.46 1021.08 1021.42 1021.40 1021.56 1022.05 1022.53 1022.84 1022.94 1023.22 1023.41 1023.83 1024.22 1024.35 1024.53 1024.61 1024.84 1025.01 1025.13 1025.10 1025.32 1025.67 1025.65 1025.24 1024.98
1014.69 1014.65 1014.43 1013.67 1013.75 1013.94 1013.56 1012.88 1012.46 1012.88 1012.91 1012.68 1012.47 1012.84 1013.55 1014.73 1015.36 1016.25 1016.78 1017.04 1017.20 1017.76 1018.38 1018.93 1019.72 1020.36 1020.85 1021.33 1021.51 1021.75 1022.06 1022.34 1022.37 1022.62 1022.94 1023.38 1023.89 1024.23 1024.52 1024.69 1024.96 1025.25 1025.28 1025.48 1025.62 1025.75 1025.49 1025.41 1025.29
1014.56 1014.51 1013.96 1013.51 1013.38 1013.91 1013.18 1012.69 1012.27 1012.35 1012.41 1012.41 1012.34 1012.43 1012.81 1013.66 1014.52 1015.67 1016.50 1016.65 1016.92 1017.43 1017.89 1018.32 1018.91 1019.65 1020.24 1020.82 1021.31 1021.41 1021.59 1021.97 1022.09 1022.26 1022.56 1023.07 1023.62 1024.11 1024.39 1024.56 1024.73 1025.05 1025.11 1025.18 1025.31 1025.48 1025.44 1025.20 1025.47
1014.55 1014.41 1014.39 1013.88 1014.43 1014.58 1013.36 1012.33 1012.20 1011.95 1011.45 1011.69 1011.83 1012.06 1012.34 1012.99 1013.66 1014.57 1015.62 1016.07 1016.36 1016.80 1017.34 1017.91 1018.31 1018.85 1019.43 1019.72 1020.29 1020.75 1021.03 1021.40 1021.71 1022.08 1022.49 1022.80 1023.11 1023.58 1024.00 1024.31 1024.42 1024.57 1024.86 1025.00 1025.20 1025.38 1025.47 1025.49 1025.74
1014.81 1014.79 1014.70 1014.71 1014.95 1014.84 1014.03 1011.95 1011.51 1011.10 1011.09 1011.08 1011.38 1011.33 1011.54 1012.16 1012.62 1013.41 1014.48 1015.31 1015.89 1016.36 1016.69 1017.10 1017.52 1017.98 1018.61 1019.07 1019.44 1020.18 1020.62 1020.92 1021.27 1021.60 1022.07 1022.41 1022.58 1022.98 1023.37 1023.68 1023.97 1024.11 1024.45 1024.77 1025.10 1025.25 1025.36 1025.42 1025.88
1015.24 1015.73 1015.91 1015.94 1015.99 1015.12 1014.60 1011.85 1010.12 1009.41 1009.22 1009.98 1010.18 1010.75 1010.81 1011.30 1012.04 1012.61 1013.62 1014.44 1015.04 1015.70 1016.23 1016.73 1016.96 1017.33 1017.86 1018.54 1018.79 1019.26 1019.73 1020.10 1020.54 1020.89 1021.24 1021.60 1022.03 1022.42 1022.85 1023.20 1023.46 1023.61 1023.95 1024.50 1024.88 1025.14 1025.18 1025.37 1025.58
1015.89 1016.49 1016.98 1017.10 1017.06 1016.78 1015.11 1013.85 1009.86 1009.74 1008.95 1008.68 1009.09 1009.67 1010.06 1010.38 1010.89 1011.61 1012.31 1013.12 1014.07 1014.93 1015.35 1015.85 1016.30 1016.68 1017.19 1017.66 1018.02 1018.28 1018.99 1019.55 1019.76 1020.09 1020.44 1021.01 1021.50 1022.04 1022.50 1022.87 1023.09 1023.53 1023.88 1024.46 1024.88 1025.21 1025.31 1025.41 1025.63
1016.73 1017.68 1018.22 1018.42 1018.30 1016.79 1014.87 1013.66 1010.14 1009.05 1008.49 1008.57 1008.44 1008.40 1009.01 1009.71 1010.10 1010.63 1011.25 1012.38 1013.24 1013.99 1014.58 1015.04 1015.55 1015.91 1016.46 1016.94 1017.38 1017.61 1017.93 1018.64 1019.04 1019.38 1020.01 1020.77 1021.47 1021.93 1022.41 1022.71 1023.06 1023.37 1023.82 1024.34 1024.75 1025.04 1025.39 1025.92 1026.13
1016.62 1017.23 1018.68 1018.91 1018.51 1015.40 1014.43 1013.35 1010.00 1008.80 1008.47 1008.06 1008.32 1008.07 1008.27 1009.05 1009.80 1009.93 1010.34 1011.08 1012.13 1012.98 1013.63 1014.31 1014.67 1014.94 1015.63 1016.08 1016.51 1016.83 1017.33 1017.89 1018.15 1018.77 1019.53 1020.15 1020.84 1021.61 1021.97 1022.60 1023.13 1023.48 1023.83 1024.08 1024.65 1025.27 1025.66 1026.04 1026.51
1016.81 1016.72 1016.90 1016.85 1016.81 1015.02 1014.65 1011.62 1009.19 1008.69 1008.43 1008.44 1008.10 1008.19 1008.26 1008.38 1008.74 1009.47 1010.13 1010.82 1011.32 1012.05 1012.82 1013.57 1014.15 1014.22 1014.54 1015.01 1015.56 1016.13 1016.49 1016.83 1017.37 1018.04 1018.83 1019.38 1019.82 1020.21 1021.11 1022.14 1022.94 1023.49 1023.72 1024.16 1024.64 1025.29 1026.02 1026.26 1026.69
1016.46 1016.91 1016.53 1016.13 1016.94 1015.59 1012.72 1010.49 1009.29 1008.57 1008.03 1008.02 1008.00 1008.21 1008.31 1008.73 1009.24 1009.56 1010.25 1010.75 1011.49 1012.09 1012.55 1012.99 1013.43 1013.90 1014.10 1014.06 1014.49 1015.18 1015.89 1016.29 1016.33 1016.95 1017.80 1018.57 1019.38 1020.06 1020.74 1021.71 1022.45 1023.14 1023.83 1023.75 1024.60 1025.34 1026.06 1026.46 1026.74
1014.85 1015.90 1016.03 1015.93 1015.53 1014.15 1010.92 1009.42 1007.94 1008.03 1007.46 1007.34 1007.68 1007.91 1008.12 1008.48 1009.18 1009.91 1010.53 1011.03 1011.38 1011.73 1012.20 1012.79 1013.10 1013.22 1013.35 1013.61 1013.81 1014.22 1014.66 1015.53 1016.11 1016.60 1017.16 1017.82 1019.04 1020.03 1020.73 1021.35 1022.16 1022.64 1023.90 1023.82 1024.20 1025.13 1025.81 1026.66 1026.86
1014.73 1014.71 1014.61 1014.37 1014.22 1012.93 1010.85 1008.17 1006.92 1006.57 1007.09 1007.42 1007.97 1008.39 1008.49 1008.78 1009.32 1009.96 1010.43 1010.90 1011.39 1011.91 1012.20 1012.40 1012.82 1012.99 1012.97 1012.98 1013.09 1013.58 1014.15 1014.85 1015.59 1016.19 1016.99 1017.72 1018.66 1019.57 1020.36 1020.97 1021.28 1022.16 1023.11 1024.02 1024.12 1024.87 1025.50 1026.48 1026.75
1013.28 1013.43 1013.53 1013.24 1013.95 1013.15 1011.61 1008.11 1007.41 1007.11 1007.48 1008.04 1008.35 1008.72 1009.00 1009.53 1009.81 1010.15 1010.63 1011.05 1011.23 1011.62 1012.12 1012.42 1012.64 1013.17 1013.62 1013.80 1013.61 1013.62 1014.25 1014.81 1015.38 1015.94 1016.89 1017.63 1018.45 1019.12 1019.90 1020.12 1021.07 1021.84 1022.45 1023.31 1023.68 1024.64 1025.51 1026.17 1026.76
Wind_Speed
13 7 6 5 6 5 3 3 2 5 5 3 4 4 10 13 8 5 8 6 13 12 12 12 11 11 11 12 11 11 10 11 14 15 14 17 18 17 18 18 15 15 17 18 18 18 18 17 17
10 7 5 3 7 7 3 4 5 5 7 7 5 2 2 7 7 9 8 11 14 11 11 12 10 9 10 12 11 10 11 12 15 14 14 16 16 16 18 17 15 16 16 17 17 17 17 17 17
9 5 7 4 5 7 3 3 6 8 7 5 4 4 3 5 7 11 11 11 11 11 11 12 10 9 9 10 11 10 10 11 14 13 14 16 15 16 16 16 15 16 15 16 17 17 17 16 15
6 5 4 7 7 2 4 1 6 10 4 1 2 7 6 8 9 5 16 13 12 11 10 11 10 9 9 10 10 11 10 11 14 15 15 16 15 15 14 14 15 14 13 15 16 15 16 16 14
4 4 6 7 7 2 2 3 5 8 7 7 3 6 5 7 7 12 14 13 10 11 11 12 9 9 8 13 12 11 9 11 14 15 14 14 13 13 13 13 13 13 13 15 14 14 14 14 13
5 4 7 9 8 3 2 2 7 8 4 5 4 5 6 8 11 13 13 14 9 10 9 12 9 8 10 10 12 11 9 10 13 16 15 14 14 13 13 12 12 12 13 14 13 13 13 12 11
10 8 11 7 3 4 2 3 7 7 6 4 4 3 6 8 8 12 11 14 11 11 10 11 11 10 10 9 10 11 11 11 11 14 14 13 12 12 12 10 11 12 12 12 12 11 11 11 10
7 6 12 7 7 3 5 7 2 4 4 3 1 4 6 12 12 11 10 11 9 8 8 11 11 11 10 10 9 11 11 11 12 12 11 11 11 10 10 10 9 10 11 10 9 9 8 8 7
4 10 10 12 8 1 4 7 1 3 4 5 5 2 5 20 15 11 9 9 7 6 10 10 9 11 11 12 9 10 9 10 11 8 7 10 7 8 9 9 8 9 9 9 7 6 3 2 4
8 10 13 4 3 3 3 5 5 6 7 8 8 5 15 18 16 16 15 12 13 10 9 8 9 10 10 9 11 9 9 8 7 7 6 4 5 7 9 7 7 7 6 5 4 2 4 7 2
9 14 7 4 4 1 3 2 4 7 8 8 10 12 16 16 16 17 16 15 14 13 6 5 9 10 10 9 8 6 5 4 4 6 5 5 6 5 4 5 5 5 6 3 4 2 2 4 4
8 15 11 8 4 3 3 1 3 11 6 6 2 16 17 17 17 17 17 16 15 15 11 7 8 9 10 7 7 7 6 6 5 5 5 4 3 2 2 2 3 2 2 2 1 2 2 2 2
11 10 3 6 6 4 3 1 5 9 10 1 4 14 17 17 16 16 15 14 14 14 12 10 8 9 10 9 7 6 6 5 5 6 5 4 4 3 3 2 2 1 1 1 0 1 2 2 3
9 10 11 8 5 3 4 1 2 3 7 7 9 13 15 17 17 17 16 15 14 13 14 11 7 8 10 8 8 7 6 6 5 5 5 5 4 4 4 3 2 2 1 1 1 2 3 3 3
3 10 6 8 6 7 3 14 9 9 3 9 10 11 13 16 18 18 16 16 16 13 14 15 11 9 10 10 8 7 7 7 6 6 6 5 4 4 3 2 2 1 1 1 2 3 3 4 2
8 9 9 10 10 4 5 18 13 4 7 11 11 11 12 16 18 16 15 15 16 15 16 17 14 12 12 10 8 6 6 6 6 6 7 8 6 5 4 3 3 2 2 1 2 2 3 3 4
8 10 15 12 11 12 12 13 16 2 8 11 12 12 12 13 15 16 17 16 16 17 17 17 17 17 15 12 8 7 8 7 6 6 7 9 8 6 4 2 1 1 2 2 3 2 2 3 5
5 11 11 17 10 8 14 17 14 9 8 10 11 11 12 14 17 17 18 16 16 16 16 17 14 15 14 9 8 7 7 8 8 7 6 8 7 7 6 3 3 3 2 2 1 2 3 2 4
14 11 16 11 5 4 14 18 19 18 13 11 11 12 12 14 14 16 17 17 17 16 16 18 17 16 12 9 8 8 8 8 7 6 7 9 8 9 6 4 4 4 5 5 4 1 2 2 3
8 16 16 5 5 4 13 17 13 16 17 15 14 13 14 14 14 15 18 18 18 18 17 17 17 17 15 10 9 8 8 8 8 7 9 10 8 9 8 6 6 7 4 4 4 3 1 2 3
10 15 14 11 3 10 14 23 22 18 20 16 16 16 15 15 17 16 18 19 17 17 17 17 16 16 16 15 10 8 7 7 8 8 7 9 11 9 9 9 7 6 5 5 4 3 4 2 2
12 3 4 1 3 6 1 10 14 11 20 21 20 18 18 17 14 14 17 18 18 17 16 18 16 16 16 16 13 14 10 9 8 9 8 9 11 10 9 9 7 5 3 5 4 3 4 2 3
2 11 4 3 1 8 13 8 8 12 17 17 18 21 20 18 17 18 18 19 19 17 17 16 17 16 16 17 16 13 13 10 9 9 10 11 8 9 6 6 6 6 4 4 5 3 3 2 1
19 10 10 7 3 8 14 13 10 14 17 12 15 16 19 20 17 17 17 15 16 16 17 16 17 18 17 17 18 17 16 14 10 9 7 7 7 5 5 5 5 5 6 6 5 4 4 2 3
4 12 1 1 5 7 5 12 14 14 12 8 9 11 12 16 17 17 17 18 18 19 19 16 19 19 18 19 17 18 17 16 15 12 9 10 8 6 8 7 5 5 6 6 5 5 5 5 4
8 5 5 10 8 6 2 12 6 8 4 6 11 9 9 8 14 14 14 14 15 17 17 17 18 19 18 18 18 16 18 12 12 14 9 9 9 10 11 9 7 8 9 7 7 6 5 6 5
7 5 4 5 3 2 8 11 14 14 14 11 12 10 12 5 8 9 9 11 11 12 14 17 17 17 17 19 16 16 15 16 13 14 11 10 9 7 11 11 10 9 8 10 9 6 7 6 6
12 13 5 1 6 8 10 15 10 7 10 10 11 7 5 5 4 5 7 9 9 9 9 12 14 16 16 16 16 14 15 14 14 9 11 11 9 10 12 12 10 10 8 9 10 8 8 7 6
9 10 7 5 5 5 6 10 4 3 3 3 3 3 2 0 3 3 3 3 5 7 8 10 12 14 15 16 16 14 12 13 12 9 8 10 10 11 11 12 13 12 11 9 10 9 10 9 8
16 14 12 8 6 7 5 12 4 5 7 5 5 5 5 3 5 4 4 5 5 7 8 9 8 9 10 9 11 11 9 6 10 9 8 10 11 11 11 14 12 12 11 11 11 11 9 10 9
Wind_Direction
286 284 286 255 253 239 243 168 11 140 150 63 39 350 37 30 9 42 142 133 135 126 122 131 118 121 115 107 101 101 112 107 105 103 96 94 90 91 92 88 82 80 80 79 75 73 72 72 72
303 303 243 263 261 254 141 103 185 108 84 114 123 129 136 75 58 121 146 154 134 136 142 125 113 118 112 104 100 108 99 106 103 105 100 97 94 88 86 85 80 80 83 78 78 73 69 70 71
290 281 259 249 259 270 357 166 111 110 130 169 126 6 31 76 108 133 134 134 126 142 123 113 117 117 117 112 108 108 112 113 112 101 92 86 86 83 80 83 76 76 74 81 78 73 69 70 72
262 203 227 241 246 324 323 61 122 142 140 175 103 107 101 30 136 159 146 142 142 131 125 124 118 122 114 124 120 109 106 106 117 108 95 93 88 85 81 79 80 77 78 82 81 76 73 71 71
252 256 235 230 241 307 281 325 188 180 143 153 197 126 74 101 139 154 156 150 141 112 129 136 119 112 103 130 127 120 113 101 117 108 98 95 93 94 92 88 87 85 89 88 85 78 76 75 72
218 277 237 223 208 170 241 272 204 189 144 115 193 133 105 127 149 153 163 141 120 130 141 135 124 112 94 97 124 121 101 105 108 109 106 103 100 96 92 94 92 90 87 89 81 75 73 76 72
258 205 245 264 260 221 168 174 196 184 172 155 69 174 90 149 173 161 159 124 153 145 145 145 143 125 97 88 87 84 82 78 100 104 98 93 97 99 96 92 90 89 90 89 82 75 73 71 67
279 249 235 239 227 211 139 167 306 196 140 97 58 175 163 164 180 164 137 132 131 156 167 145 147 152 142 128 78 81 74 62 72 89 99 95 92 97 105 110 87 91 87 86 83 78 74 72 66
273 239 232 226 235 139 123 189 150 33 144 207 161 350 82 140 166 147 143 129 148 196 178 153 159 155 146 136 118 104 96 103 105 110 126 165 127 115 96 62 82 92 93 90 86 78 79 134 119
236 224 233 345 16 93 148 231 160 211 189 209 178 124 125 154 163 164 169 168 167 162 218 135 167 158 151 135 152 141 141 162 145 162 175 112 102 72 96 100 97 84 91 96 95 119 236 237 63
226 239 220 144 105 141 99 221 233 237 232 233 203 165 151 171 176 180 182 173 176 166 188 187 180 164 160 157 150 149 157 157 165 160 158 128 132 159 151 146 157 144 207 154 194 185 45 36 9
242 230 225 145 133 189 129 93 247 243 261 15 243 151 161 181 185 188 186 177 179 168 175 201 211 179 164 163 169 158 161 166 169 166 158 156 153 151 151 125 121 152 94 125 54 80 37 14 23
231 221 244 146 160 112 161 92 286 265 261 345 155 151 172 186 189 201 190 183 182 171 172 194 237 195 167 167 165 164 160 177 165 162 174 170 149 163 168 138 148 120 154 112 75 29 8 350 1
214 203 206 191 176 137 279 236 258 217 236 196 183 177 178 190 194 197 189 192 187 181 178 186 219 241 173 183 172 163 164 163 170 174 174 177 166 171 162 168 172 187 243 97 4 11 344 333 340
163 196 193 199 236 238 277 254 228 263 186 211 205 194 181 188 201 206 197 196 188 188 181 182 191 237 193 187 177 182 170 168 180 178 167 177 184 170 202 182 196 175 127 274 244 295 287 294 314
212 230 206 217 205 199 216 257 241 210 222 223 210 206 196 198 204 202 208 202 188 185 187 180 185 199 207 189 185 187 178 190 186 180 180 183 180 186 194 205 215 157 205 254 267 352 321 335 324
202 218 220 236 205 216 212 258 249 188 232 239 218 210 198 214 210 206 211 208 192 191 189 186 187 193 200 194 184 188 192 205 193 191 190 186 191 192 201 204 106 127 277 299 0 301 311 308 330
181 193 222 227 172 213 232 248 258 188 239 242 243 212 211 213 210 208 216 209 204 197 192 188 186 195 194 195 195 190 192 203 202 200 195 188 197 195 197 192 175 195 215 222 192 244 241 297 331
193 197 233 224 143 226 241 250 248 243 226 235 237 237 218 219 216 205 214 211 209 203 199 195 189 193 187 190 194 197 199 200 210 203 182 198 197 200 200 196 201 186 218 212 204 279 278 276 3
217 203 219 262 143 244 263 258 251 255 253 232 234 227 229 217 211 205 210 210 207 203 203 201 196 195 195 189 192 204 198 199 206 197 199 202 194 197 200 204 214 214 217 204 180 191 268 77 38
208 216 222 219 155 241 274 273 257 248 243 240 244 235 225 221 214 206 206 208 207 211 203 204 200 198 197 199 190 198 203 208 203 204 198 204 206 201 200 204 215 209 202 219 177 181 226 206 111
197 196 240 291 261 270 191 284 273 252 229 221 228 228 224 216 214 214 205 208 210 209 209 212 206 201 202 198 197 194 202 197 205 205 197 199 203 207 199 206 214 199 164 160 150 178 241 192 201
153 179 193 103 343 330 238 265 269 244 246 249 226 226 226 216 207 205 202 204 208 204 209 210 209 208 202 201 207 197 205 214 207 212 199 196 195 196 176 180 171 160 142 132 142 177 212 197 170
136 96 59 56 42 250 242 244 252 252 241 243 243 247 226 225 212 210 204 198 205 207 209 209 207 210 208 205 206 209 205 208 212 203 193 188 192 174 175 163 163 148 146 147 160 161 142 121 89
133 157 128 188 201 249 1 223 256 287 276 278 290 277 235 227 223 215 202 193 204 203 207 206 208 210 211 210 209 210 212 212 216 204 199 186 179 185 189 171 155 155 153 140 136 146 128 133 130
173 145 179 203 214 253 127 239 264 234 286 268 254 256 273 265 222 224 224 216 208 207 203 204 209 214 206 208 213 213 211 214 215 214 198 201 194 186 168 168 155 154 155 148 149 134 125 123 123
158 179 309 99 42 282 220 246 257 229 250 250 250 244 237 252 245 255 241 230 223 217 214 210 208 218 215 211 208 211 217 220 212 203 205 199 190 164 161 161 150 156 172 149 144 140 137 133 127
184 153 131 156 202 240 245 247 245 202 246 261 235 253 244 270 205 240 238 244 236 234 218 219 222 218 216 214 211 210 208 215 221 205 203 185 169 158 164 156 157 153 172 155 146 141 141 141 133
162 178 202 188 234 237 282 258 351 242 244 251 84 48 339 126 33 355 325 282 253 248 241 229 225 224 217 212 208 204 203 207 209 194 181 173 153 163 170 165 161 162 163 170 147 146 147 150 147
198 186 179 189 179 247 317 263 138 136 126 159 140 112 76 59 40 16 340 313 269 246 238 238 238 239 245 234 218 206 197 175 181 166 161 157 167 170 175 162 160 164 166 165 152 148 157 154 158